ASA805 KSEA-CYBD

Flight info

Callsign ASA805
Flight time N/A
Altitude 34000
Route BANGR9 BANGR DCT PILSA DCT YZT DCT 512854N1274948W DCT 515343N1275558W 515726N1274318W 520713N1273802W 521940N1271016W 521854N1270007W 522303N1264705W DCT 522220N1264012W
Aircraft B738/M-SDE2E3FGHIRWXY/LB1

Departure

Time N/A
Airport Seattle–Tacoma International Airport (KSEA)

Arrival

Time 2026-05-06 15:16
Airport Bella Coola Airport (CYBD)
Time Latitude Longitude Altitude Speed Heading
2026-05-06 14:35 47.98433 -123.14018 23338 ft 442 kts 331°
2026-05-06 14:35 48.01282 -123.15919 23727 ft 444 kts 331°
2026-05-06 14:36 48.04072 -123.17782 24019 ft 446 kts 331°
2026-05-06 14:36 48.06910 -123.19679 24328 ft 448 kts 331°
2026-05-06 14:36 48.09763 -123.21589 24645 ft 449 kts 331°
2026-05-06 14:36 48.12627 -123.23507 24956 ft 451 kts 331°
2026-05-06 14:37 48.15496 -123.25431 25260 ft 452 kts 331°
2026-05-06 14:37 48.18378 -123.27367 25556 ft 454 kts 331°
2026-05-06 14:37 48.21228 -123.29284 25831 ft 455 kts 331°
2026-05-06 14:37 48.24123 -123.31234 26108 ft 457 kts 331°
2026-05-06 14:38 48.27015 -123.33184 26374 ft 458 kts 331°
2026-05-06 14:38 48.29933 -123.35154 26655 ft 459 kts 331°
2026-05-06 14:38 48.32849 -123.37124 27054 ft 457 kts 331°
2026-05-06 14:38 48.35743 -123.39080 27500 ft 454 kts 331°
2026-05-06 14:39 48.38626 -123.41032 27937 ft 452 kts 331°
2026-05-06 14:39 48.41489 -123.42973 28332 ft 451 kts 330°
2026-05-06 14:39 48.44347 -123.44914 28729 ft 450 kts 330°
2026-05-06 14:39 48.47171 -123.46836 29139 ft 449 kts 330°
2026-05-06 14:40 48.50020 -123.48776 29558 ft 447 kts 330°
2026-05-06 14:40 48.52854 -123.50709 29980 ft 446 kts 330°
2026-05-06 14:40 48.55678 -123.52637 30354 ft 445 kts 330°
2026-05-06 14:40 48.58494 -123.54561 30699 ft 443 kts 330°
2026-05-06 14:41 48.61298 -123.56480 31067 ft 441 kts 330°
2026-05-06 14:41 48.64096 -123.58397 31433 ft 439 kts 330°
2026-05-06 14:41 48.66867 -123.60298 31837 ft 437 kts 330°
2026-05-06 14:41 48.69626 -123.62192 32200 ft 434 kts 330°
2026-05-06 14:42 48.72336 -123.64056 32526 ft 433 kts 330°
2026-05-06 14:42 48.75073 -123.65941 32868 ft 431 kts 330°
2026-05-06 14:42 48.77829 -123.67841 33262 ft 428 kts 330°
2026-05-06 14:42 48.80503 -123.69685 33629 ft 426 kts 330°
2026-05-06 14:43 48.83196 -123.71546 33971 ft 425 kts 330°
2026-05-06 14:43 48.85891 -123.73412 34111 ft 427 kts 330°
2026-05-06 14:43 48.91292 -123.77159 34118 ft 425 kts 330°
2026-05-06 14:44 48.96640 -123.80872 34127 ft 421 kts 330°
2026-05-06 14:45 49.04608 -123.86424 34132 ft 418 kts 330°
2026-05-06 14:45 49.09894 -123.90119 34133 ft 417 kts 329°
2026-05-06 14:46 49.15172 -123.93817 34131 ft 418 kts 329°
2026-05-06 14:46 49.20462 -123.97532 34121 ft 418 kts 329°
2026-05-06 14:47 49.25751 -124.01255 34119 ft 419 kts 329°
2026-05-06 14:47 49.31045 -124.04990 34111 ft 420 kts 329°
2026-05-06 14:48 49.36356 -124.08745 34100 ft 420 kts 329°
2026-05-06 14:48 49.41671 -124.12513 34094 ft 421 kts 329°
2026-05-06 14:49 49.46987 -124.16292 34286 ft 424 kts 329°
2026-05-06 14:49 49.49662 -124.18195 34545 ft 423 kts 329°
2026-05-06 14:49 49.52326 -124.20092 34795 ft 422 kts 329°
2026-05-06 14:49 49.54993 -124.21994 35025 ft 422 kts 329°
2026-05-06 14:50 49.57660 -124.23900 35219 ft 423 kts 329°
2026-05-06 14:50 49.60332 -124.25812 35431 ft 423 kts 329°
2026-05-06 14:50 49.63005 -124.27727 35635 ft 423 kts 329°
2026-05-06 14:50 49.65673 -124.29640 35849 ft 423 kts 329°
2026-05-06 14:51 49.68346 -124.31559 36036 ft 423 kts 329°
2026-05-06 14:51 49.71020 -124.33481 36217 ft 424 kts 329°
2026-05-06 14:51 49.82202 -124.41556 36999 ft 423 kts 327°
2026-05-06 14:51 49.87991 -124.60198 37963 ft 394 kts 284°
2026-05-06 14:52 49.91039 -124.74235 38224 ft 402 kts 294°
2026-05-06 14:52 49.93846 -124.81844 38129 ft 408 kts 297°
2026-05-06 14:53 49.96178 -124.88208 38133 ft 407 kts 295°
2026-05-06 14:53 49.99171 -124.97298 38123 ft 406 kts 293°
2026-05-06 14:54 50.01210 -125.03895 38126 ft 405 kts 292°
2026-05-06 14:54 50.03609 -125.11807 38128 ft 404 kts 292°
2026-05-06 14:55 50.05981 -125.19680 38128 ft 402 kts 292°
2026-05-06 14:55 50.08355 -125.27578 38128 ft 401 kts 292°
2026-05-06 14:56 50.10718 -125.35459 38128 ft 400 kts 292°
2026-05-06 14:56 50.13054 -125.43273 38118 ft 400 kts 292°
2026-05-06 14:57 50.15401 -125.51147 38121 ft 399 kts 292°
2026-05-06 14:57 50.17734 -125.58998 38126 ft 399 kts 292°
2026-05-06 14:58 50.20061 -125.66855 38124 ft 398 kts 292°
2026-05-06 14:58 50.34871 -126.17417 38126 ft 395 kts 292°
2026-05-06 14:59 50.54442 -126.85961 38213 ft 390 kts 291°
2026-05-06 14:59 50.74797 -127.46504 37954 ft 429 kts 326°
2026-05-06 14:59 50.98215 -127.54351 37335 ft 430 kts 344°
2026-05-06 15:00 51.20056 -127.64612 32285 ft 396 kts 326°
2026-05-06 15:00 51.40920 -127.79606 25656 ft 432 kts 335°
2026-05-06 15:00 51.56913 -127.86733 21955 ft 424 kts 353°
2026-05-06 15:00 51.65445 -127.87225 19906 ft 420 kts 349°
2026-05-06 15:01 51.76126 -127.89897 17396 ft 416 kts 346°
2026-05-06 15:01 51.87312 -127.91565 14725 ft 412 kts 14°
2026-05-06 15:01 51.93921 -127.77845 13055 ft 393 kts 67°
2026-05-06 15:01 52.01704 -127.69171 10867 ft 369 kts
2026-05-06 15:02 52.04149 -127.68082 10720 ft 359 kts 18°
2026-05-06 15:02 52.06441 -127.66638 10574 ft 347 kts 18°
2026-05-06 15:02 52.08667 -127.65286 10430 ft 335 kts 17°
2026-05-06 15:02 52.10817 -127.63981 10291 ft 326 kts 23°
2026-05-06 15:03 52.12667 -127.61908 10144 ft 321 kts 43°
2026-05-06 15:03 52.14048 -127.59169 10021 ft 313 kts 52°
2026-05-06 15:03 52.15314 -127.56336 9918 ft 303 kts 53°
2026-05-06 15:03 52.16527 -127.53571 9548 ft 303 kts 53°
2026-05-06 15:04 52.17758 -127.50777 9234 ft 301 kts 53°
2026-05-06 15:04 52.18986 -127.48008 8900 ft 300 kts 53°
2026-05-06 15:04 52.20212 -127.45257 8596 ft 298 kts 53°
2026-05-06 15:04 52.21432 -127.42529 8298 ft 296 kts 53°
2026-05-06 15:05 52.22642 -127.39829 8006 ft 294 kts 53°
2026-05-06 15:05 52.23833 -127.37172 7724 ft 292 kts 53°
2026-05-06 15:05 52.25030 -127.34499 7442 ft 290 kts 53°
2026-05-06 15:05 52.26217 -127.31848 7152 ft 288 kts 53°
2026-05-06 15:06 52.27398 -127.29211 6864 ft 283 kts 53°
2026-05-06 15:06 52.28545 -127.26646 6574 ft 275 kts 53°
2026-05-06 15:06 52.29670 -127.24127 6294 ft 274 kts 53°
2026-05-06 15:06 52.30785 -127.21627 6012 ft 272 kts 54°
2026-05-06 15:07 52.31904 -127.19113 5727 ft 271 kts 56°
2026-05-06 15:07 52.32608 -127.16339 5437 ft 268 kts 83°
2026-05-06 15:07 52.32570 -127.13325 5173 ft 263 kts 98°
2026-05-06 15:07 52.32323 -127.10363 4911 ft 262 kts 99°
2026-05-06 15:08 52.32077 -127.07411 4622 ft 261 kts 98°
2026-05-06 15:08 52.31844 -127.04515 4406 ft 257 kts 98°
2026-05-06 15:08 52.31626 -127.01668 4298 ft 249 kts 95°
2026-05-06 15:08 52.31893 -126.98931 4177 ft 241 kts 68°
2026-05-06 15:09 52.32606 -126.96475 4081 ft 237 kts 62°
2026-05-06 15:09 52.33378 -126.94126 3966 ft 230 kts 61°
2026-05-06 15:09 52.34119 -126.91881 3935 ft 218 kts 62°
2026-05-06 15:09 52.34808 -126.89768 3950 ft 202 kts 61°
2026-05-06 15:10 52.35436 -126.87818 3936 ft 185 kts 61°
2026-05-06 15:10 52.36033 -126.85952 3985 ft 199 kts 62°
2026-05-06 15:10 52.36686 -126.83904 4407 ft 195 kts 62°
2026-05-06 15:10 52.37282 -126.81989 4279 ft 179 kts 63°
2026-05-06 15:11 52.37711 -126.80162 3982 ft 162 kts 67°
2026-05-06 15:11 52.38265 -126.78589 3435 ft 162 kts 51°
2026-05-06 15:11 52.38611 -126.77071 3038 ft 163 kts 92°
2026-05-06 15:11 52.38319 -126.75354 2720 ft 153 kts 108°
2026-05-06 15:12 52.38059 -126.73658 2295 ft 152 kts 104°
2026-05-06 15:12 52.37840 -126.71993 2009 ft 146 kts 102°
2026-05-06 15:12 52.37638 -126.70314 1954 ft 154 kts 102°
2026-05-06 15:12 52.37407 -126.68664 1985 ft 153 kts 111°
2026-05-06 15:13 52.37005 -126.67045 1903 ft 154 kts 113°
2026-05-06 15:13 52.36823 -126.65316 1803 ft 154 kts 88°
2026-05-06 15:13 52.36914 -126.63622 1873 ft 153 kts 81°
2026-05-06 15:13 52.37175 -126.61868 1720 ft 161 kts 75°
2026-05-06 15:14 52.37440 -126.60131 1520 ft 153 kts 76°
2026-05-06 15:14 52.37697 -126.58468 1484 ft 150 kts 75°
2026-05-06 15:14 52.37960 -126.56801 1519 ft 152 kts 76°
2026-05-06 15:14 52.38232 -126.55115 1591 ft 153 kts 75°
2026-05-06 15:15 52.38786 -126.53686 1557 ft 157 kts 22°
2026-05-06 15:15 52.39617 -126.54391 1042 ft 150 kts 280°
2026-05-06 15:15 52.39539 -126.55994 622 ft 139 kts 251°
2026-05-06 15:15 52.39225 -126.57396 324 ft 126 kts 253°
2026-05-06 15:16 52.38938 -126.58751 148 ft 133 kts 253°
2026-05-06 15:16 52.38665 -126.60008 127 ft 99 kts 250°
2026-05-06 15:16 52.38587 -126.60355 121 ft 12 kts 254°
2026-05-06 15:16 52.38575 -126.60416 122 ft 2 kts 218°
2026-05-06 15:17 52.38565 -126.60407 121 ft 2 kts 128°
2026-05-06 15:17 52.38569 -126.60387 119 ft 4 kts 65°
2026-05-06 15:17 52.38597 -126.60287 120 ft 15 kts 66°
2026-05-06 15:17 52.38646 -126.60073 122 ft 24 kts 69°
2026-05-06 15:18 52.38705 -126.59809 129 ft 24 kts 70°
2026-05-06 15:18 52.38762 -126.59556 130 ft 25 kts 70°
2026-05-06 15:18 52.38778 -126.59276 125 ft 25 kts 111°
2026-05-06 15:18 52.38782 -126.59022 121 ft 23 kts 69°
2026-05-06 15:19 52.38803 -126.58810 119 ft 16 kts 75°
2026-05-06 15:19 52.38818 -126.58748 121 ft 1 kts 69°